Hourly Weather Roundup
Issued by NWS Central Illinois

Home | Current Version | Previous Version | Text Only | Print | Product List | Glossary On
Versions: 1 2 3 4 5 6 7 8 9 10 11 12 13 14 15 16 17 18 19 20 21 22 23 24 25 26 27 28 29 30 31 32 33 34 35 36 37 38 39 40 41 42 43 44 45 46 47 48 49 50
000
NZUS43 KILX 231510
HWRILX

AREA WEATHER ROUNDUP
NATIONAL WEATHER SERVICE, LINCOLN IL
1000 AM CDT TUE AUG 23 2016


CITY           SKY/WX    TMP DP  RH WIND       PRES   REMARKS
BLOOMINGTON    SUNNY     73  64  73 S10       30.25R
CHAMPAIGN      SUNNY     73  64  73 S10       30.26R
DANVILLE       SUNNY     74  64  70 S6        30.24S
DECATUR        PTSUNNY   74  63  68 S9        30.24S
EFFINGHAM      SUNNY     76  66  71 SE7       30.27S
FLORA          SUNNY     78  67  69 SE9       30.26S HX  80
GALESBURG      MOSUNNY   73  64  72 S7        30.18S
JACKSONVILLE   MOSUNNY   74  63  68 SE13      30.20S
LACON          MOSUNNY   73  62  66 S10G16    30.20S
LAWRENCEVILLE  SUNNY     75  64  68 S8        30.27R
LITCHFIELD     PTSUNNY   73  63  69 S10G18    30.23R
$$


CITY           SKY/WX    TMP DP  RH WIND       PRES   REMARKS
LINCOLN        SUNNY     76  64  68 S9        30.22S
MACOMB         SUNNY     73  64  73 S13       30.20S
MATTOON        SUNNY     73  63  70 S8        30.26R
MT CARMEL AP   SUNNY     76  63  65 S7        30.27R
OLNEY-NOBLE AP SUNNY     75  64  69 S6        30.26F
PARIS          PTSUNNY   73  65  76 S5        30.28R
PEORIA         SUNNY     75  64  68 S13       30.21R
PONTIAC        SUNNY     74  66  76 S7        30.24S
RANTOUL        SUNNY     75  66  73 S8        30.26R
ROBINSON       SUNNY     72  64  75 S8        30.27S
SPRINGFIELD    SUNNY     76  64  66 S10       30.21S
TAYLORVILLE    SUNNY     74  64  71 S12       30.23S
$$

...REGIONAL REPORTS...


CITY           SKY/WX    TMP DP  RH WIND       PRES   REMARKS
CHICAGO O`HARE MOSUNNY   75  60  59 S13G18    30.22R
KANKAKEE       SUNNY     74  63  68 S12       30.25F
MOLINE         SUNNY     74  63  68 S7        30.16S
MOUNT STERLING CLOUDY    73  63  72 S7        30.18S
MOUNT VERNON   SUNNY     77  63  61 SE8       30.26S
PITTSFIELD     CLOUDY    74  65  74 SE7       30.19S
QUINCY         CLOUDY    74  64  71 S14       30.16S
ROCKFORD       MOSUNNY   73  64  73 S9        30.20S
$$


CITY           SKY/WX    TMP DP  RH WIND       PRES   REMARKS
BURLINGTON     SUNNY     73  64  73 S12       30.15S
CEDAR RAPIDS   MOSUNNY   71  66  84 SE12      30.11S
DES MOINES     PTSUNNY   74  66  76 S15       30.03F
KIRKSVILLE     CLOUDY    74  65  73 SE10      30.13S
OTTUMWA        SUNNY     73  64  73 S12       30.10S
ST LOUIS       CLOUDY    74  62  66 S10       30.21
$$


CITY           SKY/WX    TMP DP  RH WIND       PRES   REMARKS
TERRE HAUTE    SUNNY     75  64  68 S7        30.28R
EVANSVILLE     SUNNY     77  63  61 SE7       30.27S
INDIANAPOLIS   MOSUNNY   76  61  59 S9        30.28S
LAFAYETTE      SUNNY     74  63  68 VRB6      30.26S
MADISON        MOSUNNY   72  60  66 S12       30.15S
MILWAUKEE      MOSUNNY   78  60  53 S14       30.19S
$$






USA.gov is the U.S. government's official web portal to all federal, state and local government web resources and services.